sat.trackr.live / text

‹ back to catalog

HERMES-2

NORAD 63243 · 2025-052AK

PAYLOAD ACTIVE UNKNOWN

§ Identity

Operator
Country
IT
Launch date
2025-03-15
Launch site
AFWTR
Launch vehicle
Mass (kg)
RCS (m²)

External: N2YO · Heavens-Above · Gunter

§ Orbital elements

Epoch: 2026-05-24T23:46:13.614240Z

Period
94.15 min
Inclination
97.3917°
Eccentricity
0.0004483
Mean motion
15.29439328 rev/d
Perigee alt
474.4 km
Apogee alt
480.6 km
Semi-major
6,855.6 km
B*
5.3315e-4
RAAN
40.0464°
Arg perigee
169.2548°
Mean anomaly
190.8789°
Rev number
6,647

§ Raw data

HERMES-21 63243U 25052AK  26144.99043535  .00015161  00000+0  53315-3 0  99902 63243  97.3917  40.0464 0004483 169.2548 190.8789 15.29439328 66479

JSON: /api/v1/satellites/63243 · /tle

For live sub-satellite position, see the globe view (requires WebGL).

§ Visibility from observer

Set your observer location to see the next 7 days of passes ≥ 10°. The values pass through the URL so the page stays shareable.

No JS? Fill the form by hand. The geolocation button needs JavaScript.

§ Radio — SatNOGS DB

ModeDescriptionDownlinkUplink
GFSK Mode U - Transmitter 401.500 MHz

1 transmitter · refreshed weekly from db.satnogs.org